TimeCST,TemperatureF,Dew PointF,Humidity,Sea Level PressureIn,VisibilityMPH,Wind Direction,Wind SpeedMPH,Gust SpeedMPH,PrecipitationIn,Events,Conditions,WindDirDegrees,DateUTC
12:53 AM,1.9,-6.0,69,29.95,10.0,Calm,Calm,-,N/A,,Clear,0,2012-03-04 06:53:00
1:53 AM,-0.9,-7.1,75,29.95,10.0,Calm,Calm,-,N/A,,Clear,0,2012-03-04 07:53:00
2:53 AM,1.0,-4.0,79,29.93,9.0,SE,4.6,-,N/A,,Clear,130,2012-03-04 08:53:00
3:53 AM,3.9,-2.0,76,29.91,10.0,SE,6.9,-,N/A,,Overcast,130,2012-03-04 09:53:00
4:53 AM,7.0,1.9,80,29.92,10.0,South,4.6,-,N/A,,Mostly Cloudy,170,2012-03-04 10:53:00
5:53 AM,8.6,3.2,79,29.86,10.0,SE,3.5,-,N/A,,Overcast,130,2012-03-04 11:53:00
6:36 AM,8.6,3.2,79,29.86,1.8,SE,6.9,-,0.00,Snow,Light Snow,140,2012-03-04 12:36:00
6:53 AM,9.0,3.9,80,29.92,1.8,SE,5.8,-,0.00,Snow,Light Snow,130,2012-03-04 12:53:00
7:02 AM,8.6,3.2,79,29.86,2.0,SE,4.6,-,0.00,Snow,Light Snow,140,2012-03-04 13:02:00
7:13 AM,10.4,3.2,73,29.87,1.5,SE,5.8,-,0.01,Snow,Light Snow,140,2012-03-04 13:13:00
7:53 AM,10.0,5.0,80,29.92,1.2,ESE,6.9,-,0.01,Snow,Light Snow,120,2012-03-04 13:53:00
8:33 AM,12.2,6.8,79,29.84,2.0,SE,6.9,-,0.01,Snow,Light Snow,130,2012-03-04 14:33:00
8:44 AM,12.2,6.8,79,29.84,4.0,ESE,8.1,-,0.01,Snow,Light Snow,120,2012-03-04 14:44:00
8:53 AM,12.9,7.0,77,29.91,4.0,ESE,8.1,-,0.01,Snow,Light Snow,120,2012-03-04 14:53:00
9:53 AM,15.1,9.0,77,29.93,4.0,ESE,3.5,-,0.00,Snow,Light Snow,110,2012-03-04 15:53:00
10:03 AM,15.8,10.4,79,29.87,2.0,ESE,6.9,-,0.00,Snow,Light Snow,120,2012-03-04 16:03:00
10:37 AM,15.8,10.4,79,29.91,1.5,Calm,Calm,-,0.00,Snow,Light Snow,0,2012-03-04 16:37:00
10:45 AM,15.8,10.4,79,29.91,2.0,SW,3.5,-,0.00,Snow,Light Snow,220,2012-03-04 16:45:00
10:53 AM,16.0,10.9,81,29.98,1.0,SW,4.6,-,0.00,Snow,Light Snow,220,2012-03-04 16:53:00
11:01 AM,15.8,10.4,79,29.92,0.8,WSW,4.6,-,0.00,Snow,Light Snow,240,2012-03-04 17:01:00
11:08 AM,15.8,10.4,79,29.92,1.5,SW,3.5,-,0.01,Snow,Light Snow,230,2012-03-04 17:08:00
11:18 AM,17.6,10.4,73,29.93,2.5,WSW,4.6,-,0.01,Snow,Light Snow,250,2012-03-04 17:18:00
11:27 AM,17.6,10.4,73,29.93,2.5,Calm,Calm,-,0.01,Snow,Light Snow,0,2012-03-04 17:27:00
11:53 AM,18.0,10.9,74,30.01,2.5,West,4.6,-,0.01,Snow,Light Snow,280,2012-03-04 17:53:00
12:02 PM,17.6,10.4,73,29.95,1.8,WNW,4.6,-,0.00,Snow,Light Snow,290,2012-03-04 18:02:00
12:27 PM,17.6,10.4,73,29.97,2.0,NW,6.9,-,0.00,Snow,Light Snow,320,2012-03-04 18:27:00
12:35 PM,17.6,10.4,73,29.97,1.5,NW,5.8,-,0.00,Snow,Light Snow,320,2012-03-04 18:35:00
12:53 PM,18.0,10.9,74,30.03,1.8,NNE,4.6,-,0.01,Snow,Light Snow,20,2012-03-04 18:53:00
1:04 PM,17.6,10.4,73,29.97,2.0,Calm,Calm,-,0.00,Snow,Light Snow,0,2012-03-04 19:04:00
1:13 PM,19.4,10.4,68,29.97,1.8,Calm,Calm,-,0.00,Snow,Light Snow,0,2012-03-04 19:13:00
1:22 PM,19.4,12.2,74,29.97,2.5,Calm,Calm,-,0.00,Snow,Light Snow,0,2012-03-04 19:22:00
1:29 PM,21.2,12.2,68,29.97,4.0,Calm,Calm,-,0.00,Snow,Light Snow,0,2012-03-04 19:29:00
1:53 PM,19.9,12.0,71,30.05,9.0,Calm,Calm,-,0.00,,Overcast,0,2012-03-04 19:53:00
2:53 PM,21.0,12.0,68,30.06,4.0,Calm,Calm,-,0.00,Snow,Light Snow,0,2012-03-04 20:53:00
3:04 PM,19.4,12.2,74,30.00,2.0,Calm,Calm,-,0.00,Snow,Light Snow,0,2012-03-04 21:04:00
3:53 PM,19.0,12.9,77,30.07,2.5,WNW,4.6,-,0.00,Snow,Light Snow,290,2012-03-04 21:53:00
4:02 PM,19.4,12.2,74,30.01,3.0,West,4.6,-,0.00,Snow,Light Snow,280,2012-03-04 22:02:00
4:53 PM,19.0,12.0,74,30.09,10.0,West,3.5,-,0.00,,Overcast,280,2012-03-04 22:53:00
5:53 PM,19.0,12.0,74,30.11,10.0,West,4.6,-,N/A,,Overcast,280,2012-03-04 23:53:00
6:53 PM,19.9,12.9,74,30.13,10.0,WSW,3.5,-,N/A,,Overcast,250,2012-03-05 00:53:00
7:53 PM,16.0,10.0,77,30.14,10.0,WSW,6.9,-,N/A,,Scattered Clouds,250,2012-03-05 01:53:00
8:53 PM,12.2,8.6,85,30.08,7.0,West,5.8,-,N/A,,Clear,280,2012-03-05 02:53:00
9:53 PM,10.0,6.1,84,30.15,6.0,WSW,9.2,-,N/A,,Clear,250,2012-03-05 03:53:00
10:53 PM,7.0,3.0,84,30.15,4.0,South,4.6,-,N/A,,Clear,190,2012-03-05 04:53:00
11:53 PM,5.0,1.9,87,30.13,4.0,South,5.8,-,N/A,,Clear,190,2012-03-05 05:53:00